Retour au catalogue

DELTA 1 DEB

ActifSSO
NORAD 7034·DEBRIS·🇺🇸 United States

Lancé Nov 6, 1973 depuis Vandenberg Space Force Base

Loading…

Prochains Passages (prochaines 24 heures)

TLE

FraisSource: Space-Track

Époque: Sep 14, 2026, 11:11 UTC

1 07034U 73086AA  26257.46623339 -.00000028  00000-0  12469-3 0  9992
2 07034 102.1356 239.4034 0015742 201.7386 310.1722 12.43856983397021

Suivez DELTA 1 DEB en temps réel avec AllMySat

Download on the App Store